COSMOS 1275 DEB, 12737

Orbit data source: Space-Track

COSMOS 1275 DEB, 12737 is space debris in LEO originally from a launch on Thu, 04 Jun 1981 UTC launched from the Plesetsk Missile And Space Complex (PKMTR). Debris objects in space refer to the collection of defunct objects orbiting the Earth. Examples of debris include non-operational satellites, rocket bodies, and fragments generated from explosions, collisions, or faulty payload assembly.

Loading next visibility...
Identifier
12737, 1981-053CE
Orbit
LEO
Country
Flag of CISCIS
Related business
Manufacturer
Unknown
Mission
Spacecraft
Bus & Motor
Unknown
Mass
Unknown
Launch date (UTC)
1981-06-04 (45 years ago)
Launch vehicle
Unknown
Launch site
Plesetsk Missile And Space Complex (PKMTR)
Object type
Payload
Rocket body
Debris
Shape & HBR
Unknown shape, 0.2 m
Radar Cross Section
Medium (>0.1 m² and <1 m²)

Expand to show TLE details & history
Last TLE update: 2 days ago

TLE from 2 days ago
0 COSMOS 1275 DEB
1 12737U 81053CE  26174.32027591  .00000440  00000-0  41884-3 0  9992
2 12737  82.9806 272.9506 0151179  96.1831 328.7519 13.73583913227603
Epoch: 2026-06-23T07:41Z
TLE epoch observation values (Epoch: 2026-06-23T07:41:11.838Z)
Latitude
63.24367°
Longitude
-99.78271°
Altitude
902.862 km
Speed
7.454 km/s
True Right ascension
19h 08m 02s
True Declination
63° 06' 28"
Sunlit
Object was in daylight at epoch
Visualization orbit readout
Latitude
Unknown
Longitude
Unknown
Altitude
Unknown
Speed
Unknown
Apparent Right ascension
Unknown
Apparent Declination
Unknown
Sunlit
N/A
Visualization observer readout
Local Sidereal Time
11:25:56
Azimuth
Unknown
Elevation
Unknown
Doppler factor
Unknown
Orbital elements
Apogee altitude
1,095.179 km
Perigee altitude
872.582 km
Semi-major axis
7,362.018 km
Eccentricity
0.01512
Inclination
82.9806°
RAAN
272.9506°
Arg. of periapsis
96.1831°
True anomaly
327.83853°
Mean anomaly
328.7519°
Eccentric anomaly
328.2967°
Mean motion
3.43596 °/min
Orbital period
104.77 mins
BSTAR
0.00041884
Loading maneuver chart data...
Computing Atmospheric mass density...

Documentation

Showing up to 5 results
|